Location: Unspecified
(0.0000°N, 0.0000°E)
Time: 07:23:59
(UTC+00:00)

Vanguard 1 - Pass Details

Date: 12 December 2017
Orbit: 650 x 3833 km, 34.3° (Epoch: 23 June)

Event Time Altitude Azimuth Distance (km) Brightness Sun altitude
Rises 15:45:13 0° 331° (NNW) 4,258 13.4 29.3°
Reaches altitude 10° 15:51:17 10° 7° (N) 2,618 12.0 28.0°
Maximum altitude 15:52:40 11° 21° (NNE) 2,434 11.8 27.7°
Drops below altitude 10° 15:53:57 10° 35° (NE) 2,379 11.7 27.4°
Sets 15:58:17 0° 75° (ENE) 3,026 12.0 26.4°
